Tracking 35334 objects as of 12-Sep-2026
HD Live streaming from Space Station
objects crossing your sky now

DELTA 1 DEB


DELTA 1 DEB is no longer on orbit


NORAD ID: 9671
Int'l Code: 1972-058HM
Launch date: July 23, 1972
Source: United States (US)
Launch site: AIR FORCE WESTERN TEST RANGE (AFWTR)
Decay date: 1980-03-14

Note: This is SATELLITE DEBRIS
Your satellite tracking list
Your tracking list is empty




NASA's NSSDC Master Catalog

Two Line Element Set (TLE):
1 09671U 72058 HM 79295.12486208  .00090930 +00000-0 +04712-2 0  9995
2 09671 098.2793 343.0066 0105505 192.1128 167.7537 14.67638493381295
Source of the keplerian elements: AFSPC